VIA003 SVMI-SBEG

Flight info

Callsign VIA003
Flight time 2h 9m
Altitude 33000
Route OSMAR2 OSMAR W20 CBC UM417 LAIKA UZ6 KOKRU
Aircraft MD11/H-SDE1E2E3FGHIJ2J3J4J5M1RWXY/LB1D1

Departure

Time 2026-05-04 16:30
Airport Maiquetía Simón Bolívar International Airport (SVMI)

Arrival

Time 2026-05-04 18:39
Airport Eduardo Gomes International Airport (SBEG)
Time Latitude Longitude Altitude Speed Heading
2026-05-04 16:26 10.60252 -67.01258 303 ft 0 kts 357°
2026-05-04 16:28 10.60373 -67.01229 304 ft 10 kts 72°
2026-05-04 16:28 10.60378 -67.01193 305 ft 0 kts 88°
2026-05-04 16:29 10.60471 -66.97763 710 ft 186 kts 88°
2026-05-04 16:30 10.61462 -66.93887 2369 ft 197 kts 65°
2026-05-04 16:31 10.63084 -66.91550 3487 ft 210 kts 49°
2026-05-04 16:31 10.65095 -66.87890 4966 ft 206 kts 98°
2026-05-04 16:32 10.64940 -66.83198 5756 ft 251 kts 79°
2026-05-04 16:33 10.65911 -66.79598 6194 ft 272 kts 73°
2026-05-04 16:33 10.67093 -66.75899 6658 ft 275 kts 73°
2026-05-04 16:34 10.68232 -66.72189 7115 ft 276 kts 74°
2026-05-04 16:34 10.68799 -66.70310 7363 ft 277 kts 74°
2026-05-04 16:35 10.70499 -66.64679 8038 ft 279 kts 74°
2026-05-04 16:35 10.72228 -66.59002 8727 ft 281 kts 74°
2026-05-04 16:36 10.72753 -66.57084 8918 ft 281 kts 82°
2026-05-04 16:36 10.72443 -66.53183 9441 ft 279 kts 107°
2026-05-04 16:37 10.71173 -66.49442 9880 ft 282 kts 109°
2026-05-04 16:37 10.70522 -66.47564 10099 ft 282 kts 108°
2026-05-04 16:37 10.69306 -66.43748 10544 ft 286 kts 107°
2026-05-04 16:38 10.68119 -66.39859 11003 ft 291 kts 107°
2026-05-04 16:39 10.66148 -66.33456 11685 ft 342 kts 107°
2026-05-04 16:39 10.64646 -66.28606 12122 ft 375 kts 107°
2026-05-04 16:40 10.63031 -66.23377 12541 ft 397 kts 107°
2026-05-04 16:40 10.61365 -66.17998 12947 ft 401 kts 107°
2026-05-04 16:41 10.59704 -66.12615 13409 ft 401 kts 107°
2026-05-04 16:41 10.56186 -66.04924 14087 ft 409 kts 130°
2026-05-04 16:42 10.48966 -66.00063 14752 ft 420 kts 150°
2026-05-04 16:43 10.43790 -65.97296 15205 ft 422 kts 149°
2026-05-04 16:43 10.38627 -65.94378 15650 ft 425 kts 148°
2026-05-04 16:43 10.36049 -65.92897 15888 ft 426 kts 148°
2026-05-04 16:44 10.25587 -65.86903 16780 ft 434 kts 148°
2026-05-04 16:45 10.20281 -65.83871 17260 ft 438 kts 148°
2026-05-04 16:46 10.12247 -65.79292 18005 ft 440 kts 148°
2026-05-04 16:46 10.07092 -65.76397 18247 ft 409 kts 149°
2026-05-04 16:47 10.01849 -65.73894 18301 ft 417 kts 154°
2026-05-04 16:47 9.96437 -65.71568 19073 ft 429 kts 155°
2026-05-04 16:48 9.88052 -65.67904 20628 ft 446 kts 155°
2026-05-04 16:48 9.85145 -65.66644 20794 ft 462 kts 155°
2026-05-04 16:49 9.79021 -65.63981 21455 ft 486 kts 155°
2026-05-04 16:49 9.72705 -65.61227 22526 ft 499 kts 156°
2026-05-04 16:50 9.66280 -65.58442 23716 ft 508 kts 156°
2026-05-04 16:50 9.59691 -65.55588 24830 ft 516 kts 157°
2026-05-04 16:51 9.52995 -65.52688 25882 ft 525 kts 157°
2026-05-04 16:51 9.49627 -65.51226 26492 ft 527 kts 157°
2026-05-04 16:51 9.42891 -65.48302 27918 ft 525 kts 158°
2026-05-04 16:52 9.36204 -65.45413 29391 ft 522 kts 158°
2026-05-04 16:52 9.32849 -65.43952 30102 ft 520 kts 157°
2026-05-04 16:53 9.26179 -65.41056 31475 ft 517 kts 157°
2026-05-04 16:53 9.16251 -65.36750 32903 ft 512 kts 157°
2026-05-04 16:54 9.12953 -65.35318 32876 ft 507 kts 157°
2026-05-04 16:55 8.93333 -65.26822 32920 ft 510 kts 157°
2026-05-04 16:56 8.76981 -65.19747 32927 ft 508 kts 157°
2026-05-04 16:57 8.67104 -65.15489 32934 ft 507 kts 157°
2026-05-04 16:58 8.53957 -65.09818 32947 ft 508 kts 157°
2026-05-04 17:00 8.34371 -65.01366 32958 ft 506 kts 157°
2026-05-04 17:01 8.18074 -64.94333 32965 ft 507 kts 157°
2026-05-04 17:02 8.05068 -64.88719 32958 ft 507 kts 157°
2026-05-04 17:03 7.95224 -64.84495 32951 ft 505 kts 157°
2026-05-04 17:03 7.85499 -64.80318 32945 ft 505 kts 158°
2026-05-04 17:04 7.72473 -64.74716 32929 ft 507 kts 158°
2026-05-04 17:05 7.59440 -64.69112 32954 ft 505 kts 158°
2026-05-04 17:06 7.49650 -64.64904 32978 ft 504 kts 158°
2026-05-04 17:07 7.41000 -64.61190 32997 ft 506 kts 158°
2026-05-04 17:07 7.33444 -64.57918 33017 ft 506 kts 157°
2026-05-04 17:08 7.23671 -64.53685 33035 ft 505 kts 158°
2026-05-04 17:09 7.17194 -64.50868 33047 ft 504 kts 158°
2026-05-04 17:09 7.10736 -64.48074 33068 ft 504 kts 158°
2026-05-04 17:10 6.94463 -64.41029 33087 ft 504 kts 158°
2026-05-04 17:11 6.88025 -64.38228 33074 ft 504 kts 158°
2026-05-04 17:12 6.78311 -64.34029 33044 ft 503 kts 158°
2026-05-04 17:13 6.62207 -64.27044 33026 ft 500 kts 158°
2026-05-04 17:14 6.49350 -64.21492 33030 ft 498 kts 158°
2026-05-04 17:15 6.39719 -64.17342 33032 ft 498 kts 158°
2026-05-04 17:16 6.26961 -64.11831 33024 ft 496 kts 158°
2026-05-04 17:17 6.14234 -64.06335 33031 ft 494 kts 158°
2026-05-04 17:18 6.01490 -64.00830 33029 ft 493 kts 158°
2026-05-04 17:19 5.88831 -63.95363 33016 ft 492 kts 158°
2026-05-04 17:20 5.76205 -63.89922 33033 ft 491 kts 158°
2026-05-04 17:20 5.66765 -63.85860 33050 ft 490 kts 157°
2026-05-04 17:21 5.54156 -63.80434 33047 ft 490 kts 157°
2026-05-04 17:22 5.47823 -63.77705 33034 ft 490 kts 157°
2026-05-04 17:23 5.35241 -63.72288 33037 ft 489 kts 157°
2026-05-04 17:24 5.25768 -63.68211 33048 ft 488 kts 157°
2026-05-04 17:25 5.13200 -63.62800 33058 ft 488 kts 157°
2026-05-04 17:26 5.00647 -63.57406 33054 ft 487 kts 157°
2026-05-04 17:27 4.85020 -63.50696 33058 ft 486 kts 157°
2026-05-04 17:28 4.72522 -63.45330 33073 ft 486 kts 157°
2026-05-04 17:29 4.53712 -63.37254 33103 ft 485 kts 157°
2026-05-04 17:30 4.44324 -63.33221 33890 ft 485 kts 157°
2026-05-04 17:31 4.38086 -63.30544 34957 ft 484 kts 157°
2026-05-04 17:31 4.28833 -63.26569 35106 ft 477 kts 157°
2026-05-04 17:32 4.22727 -63.23957 35144 ft 478 kts 157°
2026-05-04 17:33 4.10427 -63.18689 35106 ft 479 kts 157°
2026-05-04 17:34 3.98167 -63.13435 35064 ft 478 kts 156°
2026-05-04 17:35 3.82843 -63.06871 35061 ft 478 kts 156°
2026-05-04 17:36 3.76712 -63.04236 35069 ft 477 kts 156°
2026-05-04 17:36 3.70554 -63.01605 35077 ft 477 kts 156°
2026-05-04 17:37 3.64472 -62.98992 35076 ft 477 kts 156°
2026-05-04 17:37 3.58317 -62.96368 35066 ft 477 kts 156°
2026-05-04 17:38 3.52226 -62.93778 35044 ft 476 kts 156°
2026-05-04 17:38 3.46091 -62.91164 35028 ft 476 kts 156°
2026-05-04 17:39 3.36923 -62.87264 35012 ft 476 kts 156°
2026-05-04 17:39 3.30793 -62.84655 35007 ft 476 kts 156°
2026-05-04 17:40 3.24715 -62.82069 34994 ft 475 kts 156°
2026-05-04 17:40 3.18593 -62.79464 34989 ft 476 kts 156°
2026-05-04 17:41 3.12482 -62.76862 34993 ft 476 kts 156°
2026-05-04 17:41 3.06382 -62.74267 34994 ft 476 kts 156°
2026-05-04 17:42 3.00288 -62.71672 34995 ft 476 kts 156°
2026-05-04 17:42 2.94180 -62.69075 34991 ft 476 kts 156°
2026-05-04 17:43 2.88032 -62.66455 34987 ft 476 kts 156°
2026-05-04 17:43 2.81901 -62.63851 34981 ft 476 kts 156°
2026-05-04 17:44 2.75793 -62.61253 34976 ft 477 kts 156°
2026-05-04 17:44 2.69671 -62.58653 34974 ft 476 kts 156°
2026-05-04 17:45 2.63571 -62.56059 34967 ft 476 kts 156°
2026-05-04 17:45 2.57457 -62.53463 34966 ft 477 kts 156°
2026-05-04 17:46 2.51329 -62.50855 34969 ft 477 kts 156°
2026-05-04 17:46 2.45198 -62.48254 34964 ft 477 kts 156°
2026-05-04 17:47 2.39080 -62.45649 34961 ft 476 kts 156°
2026-05-04 17:47 2.32981 -62.43061 34962 ft 476 kts 156°
2026-05-04 17:48 2.26840 -62.40447 34965 ft 476 kts 156°
2026-05-04 17:48 2.20761 -62.37868 34965 ft 477 kts 156°
2026-05-04 17:49 2.14671 -62.35192 34965 ft 476 kts 155°
2026-05-04 17:49 2.08551 -62.32476 34965 ft 477 kts 155°
2026-05-04 17:50 2.02455 -62.29787 34961 ft 477 kts 155°
2026-05-04 17:50 1.96396 -62.27104 34954 ft 477 kts 155°
2026-05-04 17:51 1.90308 -62.24417 34953 ft 477 kts 155°
2026-05-04 17:51 1.84187 -62.21708 34955 ft 478 kts 155°
2026-05-04 17:52 1.78087 -62.19016 34949 ft 478 kts 155°
2026-05-04 17:52 1.71979 -62.16312 34955 ft 478 kts 155°
2026-05-04 17:53 1.65877 -62.13618 34959 ft 479 kts 155°
2026-05-04 17:53 1.59769 -62.10915 34961 ft 480 kts 155°
2026-05-04 17:54 1.53637 -62.08208 34970 ft 481 kts 155°
2026-05-04 17:54 1.47481 -62.05483 34980 ft 482 kts 155°
2026-05-04 17:55 1.41334 -62.02772 34982 ft 482 kts 155°
2026-05-04 17:55 1.35156 -62.00037 34979 ft 481 kts 155°
2026-05-04 17:56 1.29019 -61.97335 34966 ft 481 kts 155°
2026-05-04 17:56 1.22884 -61.94615 34954 ft 480 kts 155°
2026-05-04 17:57 1.16785 -61.91932 34948 ft 480 kts 155°
2026-05-04 17:57 1.10627 -61.89201 34938 ft 482 kts 155°
2026-05-04 17:58 1.04462 -61.86491 34930 ft 483 kts 156°
2026-05-04 17:58 0.98310 -61.83763 34918 ft 484 kts 156°
2026-05-04 17:59 0.92143 -61.81054 34903 ft 483 kts 155°
2026-05-04 18:00 0.82887 -61.76954 34897 ft 482 kts 155°
2026-05-04 18:00 0.76702 -61.74218 34929 ft 483 kts 156°
2026-05-04 18:01 0.70556 -61.71515 34931 ft 483 kts 155°
2026-05-04 18:01 0.64384 -61.68779 34925 ft 484 kts 155°
2026-05-04 18:02 0.55112 -61.64686 34922 ft 484 kts 155°
2026-05-04 18:02 0.48944 -61.61968 34923 ft 485 kts 155°
2026-05-04 18:03 0.42763 -61.59236 34917 ft 484 kts 155°
2026-05-04 18:03 0.36594 -61.56514 34916 ft 483 kts 155°
2026-05-04 18:04 0.30425 -61.53789 34928 ft 481 kts 155°
2026-05-04 18:05 0.21599 -61.49892 34929 ft 481 kts 155°
2026-05-04 18:05 0.15488 -61.47193 34936 ft 482 kts 155°
2026-05-04 18:06 0.06267 -61.43125 34935 ft 480 kts 155°
2026-05-04 18:06 0.00125 -61.40409 34939 ft 480 kts 156°
2026-05-04 18:07 -0.06002 -61.37708 34941 ft 479 kts 156°
2026-05-04 18:07 -0.12164 -61.34983 34943 ft 479 kts 156°
2026-05-04 18:08 -0.18274 -61.32288 34952 ft 479 kts 155°
2026-05-04 18:08 -0.24387 -61.29586 34949 ft 480 kts 155°
2026-05-04 18:09 -0.36631 -61.24178 34941 ft 480 kts 155°
2026-05-04 18:10 -0.42749 -61.21488 34937 ft 478 kts 155°
2026-05-04 18:10 -0.48861 -61.18777 34933 ft 479 kts 155°
2026-05-04 18:11 -0.54984 -61.16083 34937 ft 480 kts 155°
2026-05-04 18:11 -0.61111 -61.13369 34937 ft 480 kts 155°
2026-05-04 18:12 -0.67231 -61.10672 34936 ft 480 kts 155°
2026-05-04 18:12 -0.73398 -61.07948 34939 ft 480 kts 155°
2026-05-04 18:13 -0.79516 -61.05246 34942 ft 480 kts 155°
2026-05-04 18:14 -0.88693 -61.01194 34938 ft 480 kts 155°
2026-05-04 18:14 -0.94825 -60.98485 34942 ft 481 kts 155°
2026-05-04 18:15 -1.07120 -60.93055 34940 ft 482 kts 155°
2026-05-04 18:16 -1.13299 -60.90326 34937 ft 482 kts 155°
2026-05-04 18:16 -1.19477 -60.87595 34936 ft 482 kts 155°
2026-05-04 18:17 -1.28706 -60.83522 34935 ft 482 kts 155°
2026-05-04 18:18 -1.37920 -60.79450 34925 ft 481 kts 155°
2026-05-04 18:18 -1.44024 -60.76707 34925 ft 482 kts 155°
2026-05-04 18:19 -1.53293 -60.72570 34926 ft 483 kts 154°
2026-05-04 18:19 -1.59411 -60.69827 34927 ft 483 kts 154°
2026-05-04 18:20 -1.65578 -60.67074 34920 ft 483 kts 154°
2026-05-04 18:20 -1.71752 -60.64310 34922 ft 483 kts 155°
2026-05-04 18:21 -1.77907 -60.61561 34922 ft 483 kts 154°
2026-05-04 18:21 -1.84095 -60.58792 34924 ft 484 kts 155°
2026-05-04 18:22 -1.87191 -60.57412 34706 ft 486 kts 155°
2026-05-04 18:22 -1.90287 -60.56029 33809 ft 489 kts 154°
2026-05-04 18:22 -1.93413 -60.54626 32965 ft 488 kts 154°
2026-05-04 18:22 -1.96495 -60.53249 32219 ft 486 kts 154°
2026-05-04 18:23 -1.99563 -60.51879 31520 ft 484 kts 154°
2026-05-04 18:23 -2.02650 -60.50501 30814 ft 482 kts 154°
2026-05-04 18:23 -2.05737 -60.49118 30112 ft 480 kts 154°
2026-05-04 18:23 -2.08766 -60.47761 29426 ft 479 kts 154°
2026-05-04 18:24 -2.11807 -60.46404 28750 ft 476 kts 154°
2026-05-04 18:24 -2.14852 -60.45047 28082 ft 474 kts 154°
2026-05-04 18:24 -2.17868 -60.43692 27434 ft 471 kts 154°
2026-05-04 18:24 -2.20854 -60.42353 26787 ft 469 kts 154°
2026-05-04 18:25 -2.23793 -60.41042 26160 ft 466 kts 154°
2026-05-04 18:25 -2.26753 -60.39719 25522 ft 464 kts 154°
2026-05-04 18:25 -2.29704 -60.38398 24885 ft 461 kts 154°
2026-05-04 18:25 -2.32632 -60.37083 24254 ft 459 kts 154°
2026-05-04 18:26 -2.35546 -60.35784 23630 ft 456 kts 154°
2026-05-04 18:26 -2.38443 -60.34491 22981 ft 453 kts 154°
2026-05-04 18:26 -2.41229 -60.33120 22350 ft 442 kts 149°
2026-05-04 18:26 -2.43818 -60.31520 21787 ft 430 kts 143°
2026-05-04 18:27 -2.46152 -60.29705 21244 ft 419 kts 138°
2026-05-04 18:27 -2.48307 -60.27807 20713 ft 409 kts 136°
2026-05-04 18:27 -2.50388 -60.25898 20187 ft 400 kts 136°
2026-05-04 18:27 -2.52423 -60.24031 19666 ft 391 kts 136°
2026-05-04 18:28 -2.54435 -60.22221 19163 ft 383 kts 136°
2026-05-04 18:28 -2.56398 -60.20475 18554 ft 378 kts 137°
2026-05-04 18:28 -2.58354 -60.18745 17770 ft 369 kts 137°
2026-05-04 18:28 -2.60224 -60.17088 17172 ft 356 kts 136°
2026-05-04 18:29 -2.62043 -60.15457 16668 ft 342 kts 136°
2026-05-04 18:29 -2.63760 -60.13917 16292 ft 325 kts 136°
2026-05-04 18:29 -2.65417 -60.12445 16059 ft 306 kts 136°
2026-05-04 18:29 -2.66977 -60.11061 15940 ft 297 kts 136°
2026-05-04 18:30 -2.70090 -60.08272 15183 ft 300 kts 136°
2026-05-04 18:30 -2.71637 -60.06898 14735 ft 299 kts 136°
2026-05-04 18:30 -2.73196 -60.05511 14268 ft 297 kts 136°
2026-05-04 18:31 -2.74728 -60.04140 13784 ft 296 kts 136°
2026-05-04 18:31 -2.76257 -60.02771 13300 ft 293 kts 136°
2026-05-04 18:31 -2.77777 -60.01416 12834 ft 291 kts 135°
2026-05-04 18:31 -2.79288 -60.00069 12320 ft 287 kts 135°
2026-05-04 18:32 -2.80730 -59.98785 11807 ft 276 kts 135°
2026-05-04 18:32 -2.82157 -59.97509 11360 ft 271 kts 135°
2026-05-04 18:32 -2.83566 -59.96250 10855 ft 272 kts 135°
2026-05-04 18:32 -2.84982 -59.94986 10223 ft 273 kts 135°
2026-05-04 18:33 -2.86391 -59.93729 9569 ft 270 kts 135°
2026-05-04 18:33 -2.87781 -59.92492 8888 ft 270 kts 134°
2026-05-04 18:33 -2.89178 -59.91243 8145 ft 265 kts 134°
2026-05-04 18:33 -2.90533 -59.90033 7362 ft 261 kts 134°
2026-05-04 18:34 -2.91863 -59.88845 6606 ft 258 kts 134°
2026-05-04 18:34 -2.93248 -59.87710 5814 ft 257 kts 145°
2026-05-04 18:34 -2.94901 -59.87083 5112 ft 258 kts 169°
2026-05-04 18:34 -2.96699 -59.87007 4434 ft 255 kts 177°
2026-05-04 18:35 -2.98475 -59.87000 3678 ft 255 kts 177°
2026-05-04 18:35 -3.00240 -59.86978 2923 ft 255 kts 176°
2026-05-04 18:35 -3.01999 -59.86923 2230 ft 252 kts 176°
2026-05-04 18:35 -3.03647 -59.87322 2015 ft 233 kts 212°
2026-05-04 18:36 -3.04721 -59.88460 2116 ft 222 kts 245°
2026-05-04 18:36 -3.05002 -59.89932 2235 ft 214 kts 278°
2026-05-04 18:36 -3.04695 -59.91331 1963 ft 200 kts 291°
2026-05-04 18:36 -3.04278 -59.92602 1929 ft 188 kts 289°
2026-05-04 18:37 -3.03998 -59.93857 1964 ft 184 kts 281°
2026-05-04 18:37 -3.03884 -59.95134 1977 ft 184 kts 275°
2026-05-04 18:37 -3.03865 -59.96420 1916 ft 186 kts 272°
2026-05-04 18:37 -3.03881 -59.97719 1624 ft 183 kts 271°
2026-05-04 18:38 -3.03892 -59.98965 1354 ft 181 kts 272°
2026-05-04 18:38 -3.03903 -60.00246 955 ft 184 kts 270°
2026-05-04 18:38 -3.03901 -60.01487 614 ft 176 kts 273°
2026-05-04 18:38 -3.03873 -60.02687 400 ft 170 kts 270°
2026-05-04 18:39 -3.03870 -60.03870 286 ft 168 kts 270°
2026-05-04 18:39 -3.03862 -60.05046 274 ft 165 kts 270°
2026-05-04 18:39 -3.03863 -60.05855 273 ft 61 kts 269°
2026-05-04 18:39 -3.03862 -60.06094 273 ft 20 kts 272°
2026-05-04 18:40 -3.03770 -60.06173 273 ft 20 kts
2026-05-04 18:40 -3.03691 -60.06070 273 ft 21 kts 90°
2026-05-04 18:40 -3.03688 -60.05918 273 ft 22 kts 90°
2026-05-04 18:40 -3.03690 -60.05761 273 ft 23 kts 90°
2026-05-04 18:41 -3.03692 -60.05597 273 ft 24 kts 90°
2026-05-04 18:41 -3.03683 -60.05425 273 ft 25 kts 83°
2026-05-04 18:41 -3.03645 -60.05250 273 ft 26 kts 76°
2026-05-04 18:41 -3.03598 -60.05069 273 ft 26 kts 75°
2026-05-04 18:42 -3.03506 -60.04905 273 ft 27 kts 40°
2026-05-04 18:42 -3.03372 -60.04771 273 ft 28 kts 69°
2026-05-04 18:42 -3.03354 -60.04578 273 ft 28 kts 88°
2026-05-04 18:42 -3.03316 -60.04381 273 ft 29 kts 69°
2026-05-04 18:43 -3.03266 -60.04201 273 ft 23 kts 77°
2026-05-04 18:43 -3.03236 -60.04063 273 ft 12 kts 81°
2026-05-04 18:43 -3.03208 -60.03981 273 ft 11 kts 33°
2026-05-04 18:43 -3.03171 -60.03989 273 ft 4 kts 335°
2026-05-04 18:44 -3.03140 -60.03997 273 ft 4 kts 346°
2026-05-04 18:44 -3.03138 -60.03997 273 ft 0 kts 346°